Location: *
(43.0833°N, 13.0500°E)
Time: 22:35:03
(UTC+00:00)

Cosmos 2263 Rocket - Pass Details

Date: 15 November 2019
Orbit: 825 x 847 km, 71.0° (Epoch: 10 December)

Event Time Altitude Azimuth Distance (km) Brightness Sun altitude
Rises 17:19:10 0° 345° (NNW) 3,374 5.4 -17.3°
Reaches altitude 10° 17:22:22 10° 4° (N) 2,436 4.5 -17.9°
Enters shadow 17:25:06 18° 32° (NNE) 1,938 3.7 -18.4°
